This demonstration page uses our WeatherBlox Daily Observations layout. Learn more.

Left ArrowRight Arrow

Hourly Observations for September 26, 2022

Temp ( °F °C ) Dew Point ( °F °C ) Humidity (%) Winds ( mph kmh ) Pressure ( in mb ) Visibility ( mi km ) Precip ( " mm )
12:15 am 00:15 Clear 49 9.5 42 5.5 76 76 Calm 30.23 1024 10 16 0.00 0.00
12:35 am 00:35 Clear 45 7.2 41 5.1 86 86 W 7 11 30.26 1025 10 16 0.00 0.00
12:55 am 00:55 Clear 46 7.8 41 5.1 83 83 WNW 5 7 30.25 1024 10 16 0.00 0.00
1:15 am 01:15 Clear 45 7.3 41 5 85 85 NNE 6 9 30.25 1024 10 16 0.00 0.00
1:35 am 01:35 Clear 44 6.9 41 5 88 88 NNE 5 7 30.25 1024 10 16 0.00 0.00
1:55 am 01:55 Clear 44 6.6 40 4.6 87 87 W 5 7 30.25 1025 10 16 0.00 0.00
2:15 am 02:15 Clear 45 7 40 4.7 85 85 W 6 9 30.26 1025 10 16 0.00 0.00
2:35 am 02:35 Clear 45 7 40 4.6 85 85 W 5 7 30.26 1025 10 16 0.00 0.00
2:55 am 02:55 Clear 44 6.4 40 4.6 88 88 WNW 3 6 30.27 1025 10 16 0.00 0.00
3:15 am 03:15 Clear 43 6 40 4.2 88 88 NW 5 7 30.27 1025 10 16 0.00 0.00
3:35 am 03:35 Clear 41 5.1 39 4 93 93 WNW 6 9 30.28 1025 10 16 0.00 0.00
3:55 am 03:55 Clear 42 5.5 40 4.2 91 91 NNW 5 7 30.28 1025 10 16 0.00 0.00
4:15 am 04:15 Clear 41 5.2 39 3.8 91 91 NW 3 6 30.29 1026 10 16 0.00 0.00
4:35 am 04:35 Clear 41 4.9 38 3.5 91 91 W 5 7 30.28 1025 10 16 0.00 0.00
4:55 am 04:55 Clear 40 4.6 38 3.5 93 93 WNW 6 9 30.28 1025 10 16 0.00 0.00
5:15 am 05:15 Clear 41 4.8 38 3.6 92 92 NNW 5 7 30.28 1025 10 16 0.00 0.00
5:35 am 05:35 Clear 40 4.5 38 3.3 92 92 WNW 5 7 30.29 1026 10 16 0.00 0.00
5:55 am 05:55 Clear 40 4.5 38 3.5 93 93 WNW 3 6 30.29 1026 10 16 0.00 0.00
6:15 am 06:15 Clear 39 3.9 37 2.9 93 93 Calm 30.30 1026 10 16 0.00 0.00
6:35 am 06:35 Clear 39 4.1 38 3.3 95 95 WNW 3 6 30.31 1026 10 16 0.00 0.00
6:55 am 06:55 Partly Cloudy 39 3.9 37 3 94 94 WNW 5 7 30.31 1026 10 16 0.00 0.00
7:15 am 07:15 Clear 39 3.7 37 2.8 94 94 W 7 11 30.31 1026 10 16 0.00 0.00
7:35 am 07:35 Sunny 39 4 38 3.2 95 95 W 5 7 30.31 1026 10 16 0.00 0.00
7:55 am 07:55 Sunny 40 4.2 38 3.5 95 95 WNW 3 6 30.31 1026 10 16 0.00 0.00
8:15 am 08:15 Sunny 41 5.2 40 4.4 95 95 NW 3 6 30.30 1026 10 16 0.00 0.00
8:35 am 08:35 Sunny 44 6.9 42 5.4 90 90 Calm 30.28 1025 10 16 0.00 0.00
8:55 am 08:55 Sunny 47 8.1 42 5.6 84 84 W 3 6 30.27 1025 10 16 0.00 0.00
9:15 am 09:15 Sunny 49 9.7 42 5.7 76 76 Calm 30.26 1025 10 16 0.00 0.00
9:35 am 09:35 Sunny 53 11.4 42 5.4 67 67 Calm 30.25 1024 10 16 0.00 0.00
9:55 am 09:55 Sunny 56 13.3 40 4.4 55 55 Calm 30.22 1023 10 16 0.00 0.00
10:15 am 10:15 Sunny 59 15.2 38 3.6 46 46 Calm 30.20 1023 10 16 0.00 0.00
10:35 am 10:35 Sunny 62 16.5 38 3.6 42 42 SE 3 6 30.19 1022 10 16 0.00 0.00
10:55 am 10:55 Sunny 64 17.8 37 2.6 36 36 ESE 3 6 30.18 1022 10 16 0.00 0.00
11:15 am 11:15 Sunny 66 18.8 35 1.8 32 32 ESE 6 9 30.17 1022 10 16 0.00 0.00
11:35 am 11:35 Sunny 67 19.7 35 1.6 30 30 ESE 7 11 30.17 1022 10 16 0.00 0.00
11:55 am 11:55 Sunny 69 20.6 35 1.7 28 28 SSE 7 11 30.15 1021 10 16 0.00 0.00
12:15 pm 12:15 Sunny 69 20.8 35 1.8 28 28 SE 7 11 30.13 1020 10 16 0.00 0.00
12:35 pm 12:35 Sunny 72 22 36 2.2 27 27 SE 8 13 30.10 1019 10 16 0.00 0.00
12:55 pm 12:55 Sunny 72 22.4 36 2 26 26 S 6 9 30.10 1019 10 16 0.00 0.00
1:15 pm 13:15 Sunny 73 22.9 37 2.6 26 26 S 7 11 30.09 1019 10 16 0.00 0.00
1:35 pm 13:35 Sunny 74 23.4 37 2.9 26 26 S 8 13 30.07 1018 10 16 0.00 0.00
1:55 pm 13:55 Sunny 74 23.6 37 2.8 26 26 S 6 9 30.06 1018 10 16 0.00 0.00
2:15 pm 14:15 Sunny 76 24.2 37 3 25 25 SSE 6 9 30.05 1018 10 16 0.00 0.00
2:35 pm 14:35 Sunny 76 24.7 38 3.4 25 25 S 7 11 30.03 1017 10 16 0.00 0.00
2:55 pm 14:55 Sunny 77 25 38 3.6 25 25 S 9 15 30.02 1017 10 16 0.00 0.00
3:15 pm 15:15 Sunny 77 25.2 38 3.5 24 24 SSW 3 6 30.01 1016 10 16 0.00 0.00
3:35 pm 15:35 Sunny 77 25.1 39 3.8 25 25 S 8 13 30.00 1016 10 16 0.00 0.00
3:55 pm 15:55 Sunny 78 25.5 40 4.3 25 25 SW 10 17 30.00 1016 10 16 0.00 0.00
4:15 pm 16:15 Sunny 78 25.7 40 4.5 26 26 SSW 8 13 29.98 1015 10 16 0.00 0.00
4:35 pm 16:35 Sunny 77 25.2 40 4.6 26 26 SSE 8 13 29.99 1016 10 16 0.00 0.00
4:55 pm 16:55 Sunny 78 25.7 41 5 26 26 SSW 8 13 29.97 1015 10 16 0.00 0.00
5:15 pm 17:15 Sunny 78 25.8 41 5 26 26 SSW 8 13 29.97 1015 10 16 0.00 0.00
5:35 pm 17:35 Sunny 79 26.2 41 5.2 26 26 S 6 9 29.97 1015 10 16 0.00 0.00
5:55 pm 17:55 Sunny 78 25.8 41 5.1 26 26 S 8 13 29.96 1015 10 16 0.00 0.00
6:15 pm 18:15 Sunny 78 25.3 41 4.9 27 27 SSE 7 11 29.97 1015 10 16 0.00 0.00
6:35 pm 18:35 Sunny 77 24.8 42 5.3 28 28 SSE 7 11 29.96 1015 10 16 0.00 0.00
6:55 pm 18:55 Sunny 74 23.6 42 5.7 31 31 SSE 6 9 29.97 1015 10 16 0.00 0.00
7:15 pm 19:15 Sunny 72 22.1 43 6.3 36 36 ESE 6 9 29.98 1015 10 16 0.00 0.00
7:35 pm 19:35 Clear 69 20.6 44 6.7 40 40 ESE 7 11 30.00 1016 10 16 0.00 0.00
7:55 pm 19:55 Clear 67 19.5 44 6.9 44 44 ESE 7 11 30.02 1016 10 16 0.00 0.00
8:15 pm 20:15 Clear 66 19 45 7 46 46 SE 7 11 30.02 1017 10 16 0.00 0.00
8:35 pm 20:35 Clear 65 18.2 45 7.2 49 49 SE 6 9 30.03 1017 10 16 0.00 0.00
8:55 pm 20:55 Clear 64 17.8 45 7.1 49 49 SE 7 11 30.03 1017 10 16 0.00 0.00
9:15 pm 21:15 Clear 59 15.2 45 7.3 59 59 SSE 6 9 30.06 1018 10 16 0.00 0.00
9:35 pm 21:35 Clear 58 14.6 45 7.3 62 62 SSE 6 9 30.07 1018 10 16 0.00 0.00
9:55 pm 21:55 Clear 58 14.4 45 7.3 62 62 SSE 6 9 30.07 1018 10 16 0.00 0.00
10:15 pm 22:15 Clear 57 14.1 45 7.4 64 64 SSE 6 9 30.08 1019 10 16 0.00 0.00
10:35 pm 22:35 Clear 56 13.1 45 7.3 68 68 S 6 9 30.09 1019 10 16 0.00 0.00
10:55 pm 22:55 Clear 55 13 45 7 67 67 S 7 11 30.09 1019 10 16 0.00 0.00
11:15 pm 23:15 Clear 56 13.1 44 6.9 66 66 SSE 5 7 30.10 1019 10 16 0.00 0.00
11:35 pm 23:35 Clear 56 13.2 44 6.5 64 64 SE 3 6 30.10 1019 10 16 0.00 0.00
11:55 pm 23:55 Clear 56 13.6 43 6.3 61 61 Calm 30.10 1019 10 16 0.00 0.00

Powered by AerisWeather